This is the latest recevied weather packets stored in our database for station/object AB1AU. If no packets are shown the sender has not sent any weather packets the latest 10 day(s).
| Time | Temp. | Humidity | Pressure | Rain* | Wind** | Luminosity | Snow |
|---|---|---|---|---|---|---|---|
| 1777808613 | 5.56° C | 96% | 1008.2 hPa | 1.27 mm | - | 27 W/m² | - |
| 1777808310 | 5.56° C | 96% | 1008.4 hPa | 0 mm | - | 22 W/m² | - |
| 1777808009 | 5.56° C | 96% | 1008.4 hPa | 1.78 mm | - | 23 W/m² | - |
| 1777807705 | 5.56° C | 96% | 1008.4 hPa | 1.78 mm | - | 28 W/m² | - |
| 1777807404 | 5.56° C | 96% | 1008.5 hPa | 0 mm | - | 18 W/m² | - |
| 1777807104 | 5.56° C | 96% | 1008.5 hPa | 0 mm | - | 16 W/m² | - |
| 1777806802 | 5.56° C | 96% | 1008.3 hPa | 0 mm | - | 16 W/m² | - |
| 1777806497 | 5.56° C | 96% | 1008.3 hPa | 1.27 mm | - | 11 W/m² | - |
| 1777806194 | 5.56° C | 96% | 1008.3 hPa | 0 mm | - | 13 W/m² | - |
| 1777805891 | 5.56° C | 96% | 1008.5 hPa | 0 mm | - | 15 W/m² | - |
| 1777805588 | 5.56° C | 96% | 1008.5 hPa | 1.78 mm | - | 10 W/m² | - |
| 1777805286 | 5.56° C | 96% | 1008.4 hPa | 0 mm | - | 8 W/m² | - |
| 1777804983 | 5.56° C | 96% | 1008.5 hPa | 0 mm | - | 9 W/m² | - |
| 1777804680 | 5.56° C | 96% | 1008.6 hPa | 0 mm | - | 9 W/m² | - |
| 1777804378 | 5.56° C | 96% | 1008.4 hPa | 0 mm | - | 6 W/m² | - |
| 1777804075 | 5.56° C | 96% | 1008.2 hPa | 1.27 mm | - | 9 W/m² | - |
| 1777803772 | 5° C | 96% | 1008.1 hPa | 1.27 mm | - | 8 W/m² | - |
| 1777803467 | 5° C | 96% | 1008 hPa | 0 mm | - | 7 W/m² | - |
| 1777803165 | 5° C | 96% | 1008.2 hPa | 0 mm | - | 4 W/m² | - |
| 1777802862 | 5° C | 96% | 1008.1 hPa | 0 mm | - | 3 W/m² | - |
| 1777802560 | 5° C | 96% | 1007.9 hPa | 1.78 mm | - | 3 W/m² | - |
| 1777802258 | 5° C | 96% | 1008.4 hPa | 1.78 mm | - | 2 W/m² | - |
| 1777801956 | 5° C | 96% | 1008.5 hPa | 0 mm | - | 1 W/m² | - |
| 1777801652 | 5° C | 96% | 1008.5 hPa | 0 mm | - | 1 W/m² | - |
| 1777801350 | 5° C | 96% | 1008.6 hPa | 1.78 mm | - | 1 W/m² | - |
* Rain latest hour (hover to see other rain measurements)
** Current wind speed in m/s (hover to see current wind gust speed)